This demonstration page uses our WeatherBlox Daily Observations layout. Learn more.

Left ArrowRight Arrow

Hourly Observations for May 21, 2020

Temp ( °F °C ) Dew Point ( °F °C ) Humidity (%) Winds ( mph kmh ) Pressure ( in mb ) Visibility ( mi km ) Precip ( " mm )
12:52 am 00:52 Mostly Clear 60 15.6 57 13.9 90 90 E 3 6 29.91 1013 10 16 0.00 0.00
1:52 am 01:52 Mostly Clear 60 15.6 58 14.4 93 93 E 7 11 29.90 1013 10 16 0.00 0.00
2:52 am 02:52 Clear 58 14.4 56 13.3 93 93 ESE 6 9 29.91 1013 10 16 0.00 0.00
3:52 am 03:52 Clear 58 14.4 56 13.3 93 93 SE 6 9 29.91 1013 10 16 0.00 0.00
4:52 am 04:52 Clear 57 13.9 56 13.3 96 96 SE 5 7 29.93 1013 10 16 0.00 0.00
5:38 am 05:38 Partly Cloudy 56 13.3 56 13.3 100 100 SE 3 6 29.96 1014 10 16 0.00 0.00
5:52 am 05:52 Mostly Cloudy 57 13.9 56 13.3 96 96 SE 6 9 29.94 1014 10 16 0.00 0.00
6:52 am 06:52 Cloudy 59 15 58 14.4 96 96 SE 12 19 29.95 1014 10 16 0.00 0.00
7:52 am 07:52 Cloudy 59 15 58 14.4 96 96 SE 10 17 29.96 1015 10 16 0.00 0.00
8:52 am 08:52 Cloudy 61 16.1 58 14.4 90 90 SSE 13 20 29.96 1014 10 16 0.00 0.00
9:52 am 09:52 Cloudy 63 17.2 58 14.4 84 84 ESE 13 20 29.95 1014 10 16 0.00 0.00
10:52 am 10:52 Cloudy 65 18.3 59 15 81 81 SSE 14 22 29.95 1014 10 16 0.00 0.00
11:52 am 11:52 Partly Cloudy 66 18.9 59 15 78 78 SSE 10 17 29.94 1014 10 16 0.00 0.00
12:52 pm 12:52 Sunny 70 21.1 59 15 68 68 SSE 10 17 29.93 1014 10 16 0.00 0.00
1:52 pm 13:52 Mostly Sunny 72 22.2 59 15 64 64 S 6 9 29.93 1014 10 16 0.00 0.00
2:52 pm 14:52 Mostly Cloudy 74 23.3 58 14.4 57 57 SE 7 11 29.93 1013 10 16 0.00 0.00
3:52 pm 15:52 Mostly Cloudy 73 22.8 58 14.4 59 59 SSE 8 13 29.90 1013 10 16 0.00 0.00
4:52 pm 16:52 Mostly Cloudy 73 22.8 58 14.4 59 59 SSE 6 9 29.91 1013 10 16 0.00 0.00
5:52 pm 17:52 Cloudy 71 21.7 59 15 66 66 S 8 13 29.91 1013 10 16 0.00 0.00
6:52 pm 18:52 Sunny 70 21.1 59 15 68 68 S 6 9 29.91 1013 10 16 0.00 0.00
7:52 pm 19:52 Cloudy 67 19.4 60 15.6 79 79 SSE 6 9 29.91 1013 10 16 0.00 0.00
8:52 pm 20:52 Mostly Cloudy 65 18.3 62 16.7 90 90 SE 9 15 29.88 1012 10 16 0.01 0.25
9:52 pm 21:52 Mostly Cloudy 66 18.9 59 15 78 78 SE 18 30 29.82 1010 10 16 0.00 0.00
10:52 pm 22:52 Clear 66 18.9 58 14.4 75 75 S 7 11 29.89 1012 10 16 0.00 0.00
11:52 pm 23:52 Mostly Clear 65 18.3 59 15 81 81 Calm 29.91 1013 10 16 0.00 0.00

Powered by AerisWeather